Location: Praha
(50.0830°N, 14.4670°E)
Time: 00:37:51
(UTC+01:00)

ISS - Visible Passes

Search period start: 07 December 2021 00:00
Search period end: 17 December 2021 00:00
Orbit: 417 x 422 km, 51.6° (Epoch: 06 December)

Date Brightness Start Highest point End Pass type
(mag) Time Alt. Az. Time Alt. Az. Time Alt. Az.
07 Dec -1.9 17:15:11 10° W 17:18:15 32° SSW 17:21:19 10° SSE visible
08 Dec -0.3 18:06:37 10° SW 18:07:06 10° SW 18:07:35 10° SW visible
09 Dec -0.6 17:17:49 10° W 17:19:55 16° SW 17:22:01 10° S visible
